Weather History for KCID - November, 2013

Change the Weather History Date:

Tuesday, November 19, 2013

  Actual Average Record
Temperature  
Mean Temperature 34 °F 35 °F  
Max Temperature 46 °F 45 °F 75 °F (1942)
Min Temperature 22 °F 26 °F 6 °F (1914)
Degree Days  
Heating Degree Days 31 30  
Month to date heating degree days 475 472  
Since 1 July heating degree days 1002 1082  
Cooling Degree Days 0 0  
Month to date cooling degree days 0 0  
Year to date cooling degree days 884 748  
Moisture  
Dew Point 25 °F    
Average Humidity 69    
Maximum Humidity 88    
Minimum Humidity 49    
Precipitation  
Precipitation 0.00 in 0.07 in 0.94 in (1992)
Month to date precipitation 2.20 1.37  
Year to date precipitation 36.75 32.45  
Sea Level Pressure  
Sea Level Pressure 30.24 in    
Wind  
Wind Speed 9 mph (SE)    
Max Wind Speed 20 mph    
Max Gust Speed 28 mph    
Visibility 9 miles    
Events      
T = Trace of Precipitation, MM = Missing Value Source: NWS Daily Summary

Daily Weather History Graph

Daily Weather History Graph

Search for Another Location

Airport or City:

Trip Planner

Search our weather history database for the weather conditions in past years. The results will help you decide how hot, cold, wet, or windy it might be!

Date:

Astronomy

Nov. 19, 2013 Rise Set
Actual Time 7:01 AM CST 4:42 PM CST
Civil Twilight 6:31 AM CST 5:12 PM CST
Nautical Twilight 5:57 AM CST 5:46 PM CST
Astronomical Twilight 5:24 AM CST 6:19 PM CST
Moon 6:33 PM CST (11/19) 8:41 AM CST (11/19)
Length of Visible Light 10h 41m
Length of Day
9h 41m
Waning Gibbous, 96% of the Moon is Illuminated
Nov 19
Waning Gibbous
Nov 25
Last Quarter
Dec 2
New
Dec 9
First Quarter
Dec 17
Full

Hourly Weather History & Observations

Time (CST) Temp. Windchill Dew Point Humidity Pressure Visibility Wind Dir Wind Speed Gust Speed Precip Events Conditions
12:52 AM 26.1 °F - 23.0 °F 88% 30.31 in 8.0 mi Calm Calm - N/A   Clear
1:52 AM 26.1 °F - 23.0 °F 88% 30.31 in 9.0 mi Calm Calm - N/A   Clear
2:52 AM 23.0 °F - 19.9 °F 88% 30.32 in 7.0 mi Calm Calm - N/A   Clear
3:52 AM 26.1 °F - 21.9 °F 84% 30.31 in 8.0 mi Calm Calm - N/A   Clear
4:52 AM 23.0 °F 17.0 °F 19.9 °F 88% 30.31 in 7.0 mi East 4.6 mph - N/A   Clear
5:52 AM 24.1 °F 19.7 °F 21.0 °F 88% 30.32 in 7.0 mi SE 3.5 mph - N/A   Clear
6:52 AM 24.1 °F 19.7 °F 21.0 °F 88% 30.32 in 9.0 mi SE 3.5 mph - N/A   Clear
7:52 AM 26.1 °F 17.6 °F 21.9 °F 84% 30.32 in 9.0 mi SE 8.1 mph - N/A   Clear
8:52 AM 30.9 °F 24.3 °F 24.1 °F 76% 30.33 in 10.0 mi SE 6.9 mph - N/A   Clear
9:52 AM 34.0 °F 25.5 °F 26.1 °F 73% 30.31 in 10.0 mi SE 11.5 mph - N/A   Clear
10:52 AM 37.9 °F 30.5 °F 27.0 °F 65% 30.30 in 10.0 mi SE 11.5 mph - N/A   Clear
11:52 AM 41.0 °F 33.9 °F 25.0 °F 53% 30.27 in 10.0 mi SSE 12.7 mph - N/A   Clear
12:52 PM 43.0 °F 36.8 °F 26.1 °F 51% 30.24 in 10.0 mi SE 11.5 mph - N/A   Clear
1:52 PM 45.0 °F 38.9 °F 26.1 °F 48% 30.21 in 10.0 mi SE 12.7 mph - N/A   Clear
2:52 PM 45.0 °F 38.5 °F 28.0 °F 52% 30.19 in 10.0 mi SE 13.8 mph 18.4 mph N/A   Clear
3:52 PM 45.0 °F 38.5 °F 28.9 °F 53% 30.18 in 10.0 mi SE 13.8 mph 20.7 mph N/A   Clear
4:52 PM 42.1 °F 35.7 °F 28.0 °F 58% 30.18 in 10.0 mi SE 11.5 mph - N/A   Clear
5:52 PM 39.9 °F 32.9 °F 28.0 °F 63% 30.17 in 10.0 mi SE 11.5 mph - N/A   Clear
6:52 PM 39.9 °F 32.1 °F 27.0 °F 60% 30.17 in 10.0 mi SE 13.8 mph - N/A   Clear
7:52 PM 37.9 °F 29.6 °F 26.1 °F 62% 30.17 in 10.0 mi SE 13.8 mph - N/A   Clear
8:52 PM 37.0 °F 28.9 °F 26.1 °F 65% 30.17 in 10.0 mi SSE 12.7 mph - N/A   Partly Cloudy
9:52 PM 37.9 °F 29.6 °F 26.1 °F 62% 30.16 in 10.0 mi SSE 13.8 mph 23.0 mph N/A   Overcast
10:52 PM 37.9 °F 28.5 °F 26.1 °F 62% 30.14 in 10.0 mi SSE 17.3 mph 24.2 mph N/A   Overcast
11:52 PM 37.0 °F 29.3 °F 26.1 °F 65% 30.14 in 10.0 mi SSE 11.5 mph 21.9 mph N/A   Overcast